TimeCST,TemperatureF,Dew PointF,Humidity,Sea Level PressureIn,VisibilityMPH,Wind Direction,Wind SpeedMPH,Gust SpeedMPH,PrecipitationIn,Events,Conditions,WindDirDegrees,DateUTC
12:53 AM,27.0,19.9,75,30.02,10.0,Calm,Calm,-,N/A,,Overcast,0,2012-12-07 06:53:00
1:53 AM,21.9,16.0,78,30.00,10.0,Calm,Calm,-,N/A,,Clear,0,2012-12-07 07:53:00
2:53 AM,21.0,17.1,85,29.99,10.0,Calm,Calm,-,N/A,,Clear,0,2012-12-07 08:53:00
3:53 AM,16.0,12.0,84,29.99,10.0,Calm,Calm,-,N/A,,Clear,0,2012-12-07 09:53:00
4:53 AM,17.1,14.0,88,29.98,10.0,Calm,Calm,-,N/A,,Clear,0,2012-12-07 10:53:00
5:53 AM,17.1,14.0,88,29.96,10.0,Calm,Calm,-,N/A,,Mostly Cloudy,0,2012-12-07 11:53:00
6:53 AM,21.0,18.0,88,29.95,10.0,ESE,3.5,-,N/A,,Partly Cloudy,120,2012-12-07 12:53:00
7:53 AM,21.0,18.0,88,29.95,10.0,Calm,Calm,-,N/A,,Scattered Clouds,0,2012-12-07 13:53:00
8:53 AM,28.9,23.0,78,29.94,10.0,South,9.2,-,N/A,,Mostly Cloudy,170,2012-12-07 14:53:00
9:53 AM,30.9,23.0,72,29.95,10.0,SSW,10.4,-,N/A,,Mostly Cloudy,200,2012-12-07 15:53:00
10:53 AM,34.0,24.1,67,29.94,10.0,South,10.4,-,N/A,,Clear,180,2012-12-07 16:53:00
11:53 AM,36.0,23.0,59,29.92,10.0,SW,11.5,-,N/A,,Clear,220,2012-12-07 17:53:00
12:53 PM,42.1,21.0,43,29.89,10.0,West,15.0,-,N/A,,Partly Cloudy,260,2012-12-07 18:53:00
1:53 PM,44.1,19.9,38,29.88,10.0,WNW,12.7,19.6,N/A,,Scattered Clouds,290,2012-12-07 19:53:00
2:53 PM,45.0,21.0,39,29.88,10.0,NW,17.3,24.2,N/A,,Clear,310,2012-12-07 20:53:00
3:53 PM,39.9,23.0,51,29.94,10.0,NW,21.9,-,N/A,,Clear,310,2012-12-07 21:53:00
4:53 PM,36.0,23.0,59,29.96,7.0,NNW,19.6,28.8,N/A,,Clear,330,2012-12-07 22:53:00
5:53 PM,34.0,21.9,61,30.00,10.0,NNW,13.8,-,N/A,,Clear,340,2012-12-07 23:53:00
6:53 PM,32.0,21.2,64,29.92,10.0,NNW,13.8,-,N/A,,Clear,330,2012-12-08 00:53:00
7:53 PM,30.2,21.2,69,29.94,10.0,North,5.8,-,N/A,,Clear,350,2012-12-08 01:53:00
8:53 PM,28.9,21.9,75,30.04,10.0,NW,6.9,-,N/A,,Clear,320,2012-12-08 02:53:00
9:53 PM,25.0,19.9,81,30.05,10.0,NW,5.8,-,N/A,,Clear,320,2012-12-08 03:53:00
10:53 PM,19.9,17.1,89,30.05,10.0,Calm,Calm,-,N/A,,Clear,0,2012-12-08 04:53:00
11:53 PM,14.0,10.9,88,30.07,10.0,North,4.6,-,N/A,,Clear,350,2012-12-08 05:53:00